Location: Glens Falls
(43.3090°N, 73.6440°W)
Time: 10:10:56
(UTC-04:00)

Daily predictions for brighter satellites

Satellite Brightness Start Highest point End
(mag) Time Altitude Azimuth Time Altitude Azimuth Time Altitude Azimuth
Meteor 2-9 Rocket 4.3 20:49:14 10° N 20:54:56 71° ENE 21:00:42 10° SSE
CZ-4 DEB 4.1 20:54:16 10° S 20:57:20 41° W 21:00:25 10° NNW
Cosmos 1626 Rocket 4.1 20:55:29 10° SSE 20:59:38 40° E 21:03:46 10° NNE
Lacrosse 5 4.2 20:56:01 10° W 21:00:15 26° NNW 21:04:29 10° NNE
Cosmos 494 Rocket 4.0 20:55:20 10° SSW 21:00:26 87° WNW 21:05:36 10° NNE
CZ-4 SHROUD 4.2 20:59:26 10° SE 21:02:17 32° ENE 21:05:09 10° N
Meteor 2-4 Rocket 3.9 20:59:36 10° S 21:05:29 87° W 21:11:28 10° N
Cosmos 2228 3.1 21:01:24 10° N 21:05:50 80° E 21:10:14 10° S
Cosmos 2333 Rocket 4.4 21:01:48 10° WSW 21:06:46 31° NW 21:11:46 10° N
YAOGAN 6 4.3 21:05:34 10° ESE 21:08:23 21° ENE 21:11:14 10° NNE
Cosmos 1943 4.3 21:10:49 10° SSE 21:15:13 24° ESE 21:19:38 10° NE
Cosmos 1943 Rocket 4.2 21:15:03 10° N 21:18:12 15° NE 21:21:21 10° E
Nimbus 7 Rocket 4.4 21:12:35 10° NNE 21:18:33 67° ESE 21:24:24 10° S
H-2A R/B 4.0 21:18:06 10° E 21:20:48 15° ENE 21:23:32 10° NNE
Okean 2 4.2 21:16:58 10° SSW 21:21:05 56° W 21:25:13 10° N
PSLV R/B 3.2 21:22:51 11° SSE 21:25:42 65° ENE 21:28:49 10° N
Aureole 2 Rocket 3.4 21:23:02 10° SSW 21:26:51 56° WNW 21:30:21 10° NNE
Lacrosse 4 Rocket 3.1 21:26:48 13° ESE 21:27:39 14° ESE 21:29:46 10° ENE
SPOT 1/Viking Rocket 4.2 21:24:42 12° SE 21:29:06 42° ENE 21:33:56 10° N
SeaSat 1 2.5 21:24:32 12° SE 21:29:10 75° ENE 21:34:08 10° NNW
CZ-4B R/B 3.8 21:31:45 10° NNE 21:36:40 48° E 21:41:41 10° S
Cosmos 1238 4.3 21:35:16 12° S 21:38:05 53° E 21:41:01 10° NNE
CZ-2C R/B 3.5 21:38:47 10° WSW 21:39:51 12° W 21:40:54 10° WNW
DEBRIS 3.6 21:39:50 10° WNW 21:44:20 33° SW 21:45:47 18° S
Cosmos 1461 4.0 21:42:24 10° NW 21:46:23 38° WSW 21:49:44 13° S
ATLAS 3B R/B 3.3 21:44:24 10° S 21:51:33 43° ESE 21:58:35 10° NE
Tsikada Rocket 4.2 21:46:34 10° SSW 21:52:58 77° W 21:59:23 10° N
ARGOS 3.4 21:51:45 18° SE 21:55:42 59° ENE 22:01:03 10° N
Cosmos 2369 Rocket 2.4 21:52:15 10° NNW 21:57:54 62° ENE 22:01:39 21° SE
USA 234 3.3 22:01:10 19° SE 22:06:08 86° SW 22:12:45 10° NW
Atlas Centaur 2 3.7 22:01:41 10° SW 22:08:21 32° S 22:12:43 20° SE
Cosmos 1825 Rocket 3.5 22:05:59 17° S 22:09:23 76° E 22:13:50 10° NNE
Envisat 4.1 22:06:00 10° SSW 22:10:44 39° W 22:15:30 10° NNW
NOAA 11 4.2 22:08:02 22° SSE 22:11:37 74° ENE 22:17:03 10° N
CZ-4C R/B 3.6 22:10:25 27° SE 22:12:30 58° ENE 22:16:31 10° N
Cosmos 407 Rocket 3.7 22:11:19 19° S 22:14:51 51° ESE 22:19:54 10° NNE
ISS -3.4 22:14:12 10° WSW 22:17:28 86° NNW 22:20:45 10° ENE
Cosmos 2142 Rocket 4.5 22:13:19 10° N 22:19:40 90° W 22:24:04 21° S
SL-27 R/B 4.5 22:21:09 15° ENE 22:21:09 15° ENE 22:22:17 10° ENE
CZ-4 R/B 3.9 22:15:12 10° NNE 22:20:14 84° ESE 22:24:19 16° SSW
PSLV R/B 3.4 22:18:34 10° WSW 22:22:03 56° S 22:22:59 41° ESE
SL-08 RB Rocket 3.6 22:21:16 28° SSE 22:23:42 89° E 22:28:16 10° NNW
Cosmos 2263 4.2 22:18:20 10° NNW 22:23:58 72° ENE 22:26:58 28° SE
COSMOS 2406 4.3 22:27:26 23° ESE 22:28:16 24° ESE 22:32:46 10° NE
USA 238 DEB 4.5 22:26:24 25° SSE 22:28:52 32° ESE 22:34:56 10° NE
SPOT 5 4.4 22:25:12 10° SSW 22:28:53 26° W 22:32:32 10° NW
USA 238 4.5 22:26:35 25° SE 22:28:59 31° ESE 22:35:01 10° NE
Meteor 1-22 Rocket 4.2 22:23:25 10° N 22:29:01 89° WSW 22:32:25 26° S
Landsat 7 3.8 22:27:37 31° SSE 22:29:52 75° ENE 22:34:39 10° N
Cosmos 1953 3.3 22:26:26 10° NNE 22:30:02 31° ENE 22:30:51 29° E
Cosmos 1634 Rocket 4.1 22:24:07 10° NNW 22:30:16 72° W 22:34:40 20° S
Lacrosse 5 rocket 4.4 22:29:19 10° NW 22:31:45 15° NNW 22:34:18 10° NNE
Spot 4 4.4 22:30:07 30° ESE 22:32:01 45° ENE 22:36:35 10° N
COSMOS 2455 3.5 22:26:29 10° SW 22:32:24 58° NW 22:38:21 10° NNE
Cosmos 1954 Rocket 4.4 22:32:27 31° SSE 22:34:21 44° ESE 22:39:23 10° NNE
Cosmos 1066 Rocket 4.5 22:30:02 12° SSW 22:35:17 72° WNW 22:41:07 10° N
YAOGAN 6 4.3 22:39:45 17° SW 22:41:49 28° W 22:45:05 10° NW
Terra 1.8 22:43:54 38° SSE 22:45:41 76° ENE 22:50:27 10° N
Cosmos 489 Rocket 4.5 22:42:05 14° SSW 22:47:44 88° WNW 22:54:10 10° NNE
Cosmos 1346 Rocket 3.5 22:48:51 23° SW 22:51:01 48° WNW 22:54:50 10° N
IGS 5A 3.4 22:51:07 50° SSE 22:52:09 80° ENE 22:56:20 10° N
Cosmos 2279 Rocket 4.0 22:47:24 10° N 22:53:40 81° W 22:56:57 30° S
Cosmos 1953 Rocket 4.5 22:52:37 19° SW 22:55:29 46° WNW 22:59:48 10° N
Cosmos 2084 4.0 22:52:45 10° NNW 22:56:46 48° NE 22:57:57 37° E
Cosmos 1943 3.9 22:53:21 10° SW 22:58:53 52° WNW 23:04:27 10° NNE
H-2A R/B 2.0 22:57:40 39° S 22:59:32 76° WSW 23:04:37 10° NNW
Geosat 4.2 22:57:27 10° NNE 23:02:28 70° WNW 23:06:36 15° SW
Cosmos 1943 Rocket 2.1 22:57:16 10° NNW 23:02:51 81° ENE 23:04:49 42° SSE
Cosmos 1842 3.3 23:04:01 52° SSW 23:04:52 75° W 23:08:48 10° N
SAR-Lupe-2 4.1 23:05:25 45° SW 23:05:53 48° W 23:09:24 10° NNW
Lacrosse 4 Rocket 2.0 23:03:03 18° SW 23:05:54 53° WNW 23:09:56 10° NNE
Cosmos 1932 4.4 23:03:15 29° SSW 23:06:29 66° ESE 23:12:40 10° NE
Cosmos 2221 4.3 23:04:22 10° NNE 23:07:25 19° ENE 23:07:58 18° E
Cosmos 1570 Rocket 4.2 23:02:36 10° NNW 23:07:56 61° ENE 23:09:35 42° SE
Cosmos-2242 3.1 23:06:14 10° NNW 23:10:39 71° W 23:11:38 51° SSW
Cosmos 1850 Rocket 4.3 23:09:59 43° SE 23:10:42 46° ESE 23:15:42 10° NNE
Cosmos 1607 4.3 23:12:49 40° SE 23:13:59 44° ESE 23:19:51 10° NE
Cosmos 1758 3.3 23:11:41 10° N 23:15:48 78° W 23:16:19 65° SSW
Cosmos 1656 Rocket 4.1 23:12:22 10° NNW 23:17:58 54° ENE 23:19:52 37° ESE
Okean 3 Rocket 4.3 23:23:15 38° E 23:23:15 38° E 23:27:14 10° NNE
DMSP B5D2-2 4.4 23:18:29 10° N 23:23:44 66° WNW 23:26:13 31° SW
Meteor 2-5 Rocket 4.2 23:23:06 40° ESE 23:24:17 44° E 23:29:45 10° NNE
Cosmos 1023 Rocket 4.4 23:22:55 48° S 23:24:24 80° ESE 23:29:41 10° NNE
Cosmos 1140 Rocket 3.4 23:28:55 48° SSW 23:30:27 89° ESE 23:35:44 10° NNE
Cosmos 1733 4.1 23:28:15 10° N 23:31:40 39° ENE 23:31:40 39° ENE
Cosmos 2369 Rocket 4.0 23:37:28 10° NW 23:41:22 19° W 23:43:27 16° SW
ATLAS 3B R/B 3.7 23:34:51 10° WSW 23:42:18 50° NW 23:49:32 10° NNE
COSMOS 2487 3.6 23:47:19 38° NE 23:47:19 38° NE 23:49:46 10° NNE
ALOS 2 3.5 23:46:16 35° E 23:46:38 36° ENE 23:50:40 10° N
NOSS 3-2 (A) 3.9 23:47:21 40° ESE 23:47:36 40° ESE 23:53:40 10° NE
Cosmos 1470 2.9 23:50:19 10° N 23:53:49 69° NW 23:53:49 69° NW
ISS -0.8 23:51:33 10° WNW 23:54:16 23° NNW 23:56:58 10° NE
SL-27 R/B 4.2 23:54:51 25° WNW 23:55:09 26° WNW 23:58:02 10° N
